Weather observations for the past three days for
Little Rock, Adams Field
Metric (Imperial)
Date Time (cdt) Wind (kph) Vis. (km) Weather Sky Cond. Temperature (ºC) Relative Humidity Wind Chill (°C) Heat Index (°C) Pressure Precipitation (cm)
Air Dwpt 6 hour altimeter (cm) sea level (mb) 1 hr 3 hr 6 hr
Max. Min.
21 12:53 S 17 16.09 Partly Cloudy FEW040 SCT080 SCT250 32.8 20.6 32.8 24.4 49% 36 76.68 1022.2
21 11:53 Vrbl 9 G 26 16.09 Partly Cloudy FEW060 SCT080 SCT250 32.2 21.1 52% 35 76.73 1022.9
21 10:53 Vrbl 9 16.09 Mostly Cloudy SCT050 BKN150 31.7 21.1 53% 35 76.76 1023.2
21 09:53 S 9 16.09 Partly Cloudy SCT065 29.4 21.1 61% 32 76.76 1023.2
21 08:53 S 7 16.09 Partly Cloudy SCT065 SCT085 27.2 21.7 72% 29 76.78 1023.4
21 07:53 SE 7 16.09 Partly Cloudy FEW065 SCT085 SCT250 25.6 21.1 76% 27 76.76 1023.3
21 06:53 N 7 16.09 Partly Cloudy SCT085 SCT250 24.4 21.1 26.1 22.8 82% 25 76.73 1022.9
21 05:53 N 6 16.09 Mostly Cloudy FEW085 BKN250 23.3 20 82% 76.73 1022.9
21 04:53 Calm 16.09 Mostly Cloudy BKN250 24.4 20.6 79% 25 76.73 1022.8
21 03:53 Calm 16.09 Mostly Cloudy BKN250 24.4 20.6 79% 25 76.71 1022.4
21 02:53 Calm 16.09 Partly Cloudy SCT250 25 20.6 77% 26 76.68 1022.1
21 01:53 E 6 16.09 A Few Clouds FEW250 24.4 21.1 82% 25 76.68 1022.2
21 00:53 E 6 16.09 A Few Clouds FEW250 26.1 21.1 31.7 25 74% 28 76.68 1022.4
20 23:53 Calm 16.09 A Few Clouds FEW250 25.6 20.6 74% 27 76.71 1022.5
20 22:53 SE 7 16.09 A Few Clouds FEW250 26.7 20 67% 28 76.68 1022.3
20 21:53 SE 6 16.09 A Few Clouds FEW250 27.8 20 63% 29 76.66 1022.0
20 20:53 SE 7 16.09 A Few Clouds FEW250 28.3 19.4 59% 30 76.66 1021.7
20 19:53 SE 11 16.09 A Few Clouds FEW250 30.6 19.4 51% 32 76.63 1021.6
20 18:53 E 13 16.09 A Few Clouds FEW060 FEW250 31.7 18.9 33.3 30.6 47% 33 76.66 1021.8
20 17:53 SE 15 16.09 Partly Cloudy SCT060 SCT120 32.2 19.4 47% 34 76.66 1022.0
20 16:53 E 11 16.09 Mostly Cloudy BKN060 BKN120 32.8 18.9 44% 34 76.71 1022.6
20 15:53 E 9 16.09 Mostly Cloudy SCT040 BKN060 32.8 20 47% 35 76.73 1022.9
20 14:53 SE 15 16.09 Mostly Cloudy SCT040 BKN060 32.8 20.6 49% 36 76.76 1023.3
20 13:53 E 17 16.09 Mostly Cloudy SCT039 BKN049 31.7 20.6 52% 34 76.81 1023.8
20 12:53 SE 13 16.09 Partly Cloudy SCT039 SCT065 SCT085 31.7 21.1 31.7 25 53% 35 76.84 1024.4
20 11:53 SE 11 16.09 Mostly Cloudy SCT070 BKN250 31.7 21.1 53% 35 76.86 1024.7
20 10:53 SE 11 16.09 Mostly Cloudy BKN090 30 21.1 59% 33 76.86 1024.5
20 09:53 E 11 16.09 Mostly Cloudy SCT070 BKN250 27.8 21.1 67% 30 76.86 1024.5
20 08:53 E 11 16.09 Mostly Cloudy SCT070 BKN250 27.8 21.1 67% 30 76.81 1024.1
20 07:53 E 9 16.09 Mostly Cloudy BKN070 BKN250 26.7 21.1 71% 28 76.76 1023.4
20 06:53 E 9 16.09 Mostly Cloudy BKN070 BKN250 25 21.1 27.2 24.4 79% 26 76.73 1023.1
20 05:53 E 9 16.09 Mostly Cloudy BKN060 BKN250 25 21.1 79% 26 76.71 1022.5
20 04:53 E 9 16.09 Overcast BKN070 OVC085 25 21.1 79% 26 76.68 1022.2
20 03:53 E 7 16.09 Mostly Cloudy FEW070 BKN085 BKN250 25 21.1 79% 26 76.68 1022.1
20 02:53 E 9 16.09 Mostly Cloudy BKN070 25.6 21.1 76% 27 76.66 1021.9
20 01:53 E 9 16.09 Overcast OVC060 26.7 21.1 71% 28 76.68 1022.2
20 00:53 E 9 16.09 Partly Cloudy SCT070 27.2 21.1 30 27.2 69% 29 76.66 1022.0
19 23:53 E 11 16.09 Overcast OVC070 27.8 21.7 69% 30 76.66 1022.0
19 22:53 E 15 16.09 Overcast OVC080 27.8 22.2 72% 30 76.66 1021.8
19 21:53 E 15 16.09 Mostly Cloudy BKN080 27.8 22.8 74% 31 76.61 1021.3
19 20:53 E 11 16.09 Mostly Cloudy BKN080 28.3 22.2 70% 31 76.58 1020.7
19 19:53 E 15 16.09 Mostly Cloudy FEW040 BKN080 29.4 21.7 63% 32 76.5 1020.0
19 18:53 E 15 16.09 Mostly Cloudy FEW040 BKN080 30 22.2 32.2 30 63% 33 76.48 1019.6
19 17:53 E 15 16.09 Mostly Cloudy SCT040 BKN080 30.6 22.8 63% 35 76.48 1019.6
19 16:53 E 15 16.09 Mostly Cloudy SCT040 BKN080 30.6 22.2 61% 34 76.5 1019.8
19 15:53 E 20 16.09 Mostly Cloudy SCT040 BKN120 32.2 22.8 58% 37 76.53 1020.2
19 14:53 SE 15 16.09 Mostly Cloudy SCT034 BKN120 31.1 21.7 57% 34 76.56 1020.5
19 13:53 SE 13 16.09 Mostly Cloudy SCT045 BKN160 31.1 22.2 59% 35 76.58 1020.8
19 12:53 SE 13 16.09 Mostly Cloudy FEW035 FEW120 BKN160 31.1 22.8 31.1 23.9 61% 35 76.61 1021.2
19 11:53 SE 11 16.09 Overcast FEW100 OVC160 29.4 21.7 63% 32 76.61 1021.4
19 10:53 E 15 16.09 Mostly Cloudy FEW040 FEW100 BKN160 28.9 22.2 67% 32 76.63 1021.5
19 09:53 SE 11 16.09 Overcast SCT100 OVC160 26.7 22.2 76% 29 76.63 1021.5
19 08:53 E 11 16.09 Overcast FEW100 OVC160 25.6 22.2 82% 27 76.61 1021.2
19 07:53 E 7 16.09 Overcast FEW100 OVC160 24.4 21.7 85% 25 76.56 1020.5
19 06:53 NE 6 16.09 Overcast BKN160 OVC250 23.9 21.7 24.4 22.8 88% 24 76.48 1019.5
19 05:53 Calm 16.09 Mostly Cloudy BKN250 23.3 21.1 88% 76.4 1018.6
19 04:53 NE 7 16.09 Fair CLR 23.3 21.1 88% 76.35 1018.0
19 03:53 E 7 16.09 Fair CLR 22.8 20.6 87% 76.35 1017.7
19 02:53 E 6 16.09 Fair CLR 22.8 20.6 87% 76.33 1017.3
19 01:53 E 9 16.09 Fair CLR 23.3 20.6 85% 76.33 1017.3
19 00:53 Calm 16.09 Fair CLR 24.4 20.6 28.9 24.4 79% 25 76.33 1017.4
18 23:53 SE 11 16.09 A Few Clouds FEW120 24.4 20.6 79% 25 76.33 1017.4
18 22:53 SE 11 16.09 A Few Clouds FEW120 25 20.6 77% 26 76.3 1017.2
18 21:53 SE 13 16.09 A Few Clouds FEW120 25.6 20.6 74% 27 76.3 1017.1
18 20:53 SE 17 16.09 A Few Clouds FEW120 26.7 20 67% 28 76.25 1016.4
18 19:53 SE 24 G 39 16.09 A Few Clouds FEW120 27.8 20.6 65% 30 76.23 1016.1
18 18:53 SE 26 16.09 Mostly Cloudy FEW080 BKN120 28.9 21.7 31.1 28.9 65% 32 76.2 1015.7
18 17:53 SE 26 16.09 Mostly Cloudy SCT050 BKN080 BKN120 30.6 21.7 59% 34 76.2 1015.7
18 16:53 SE 20 16.09 Mostly Cloudy SCT050 BKN080 BKN120 30.6 22.8 63% 35 76.2 1015.7
18 15:53 SE 20 16.09 Overcast SCT028 OVC100 30.6 23.3 65% 35 76.23 1016.1
18 14:53 S 20 G 39 16.09 Mostly Cloudy SCT028 BKN033 BKN110 30.6 23.3 65% 35 76.23 1016.2
18 13:53 S 20 16.09 Mostly Cloudy SCT031 BKN110 30.6 22.8 63% 35 76.25 1016.4
Date Time (cdt) Wind (kph) Vis. (km) Weather Sky Cond. Air Dwpt Max. Min. Relative Humidity Wind Chill (°C) Heat Index (°C) altimeter (cm) sea level (mb) 1 hr 3 hr 6 hr
6 hour
Temperature (ºC) Pressure Precipitation (cm)